elipso.hr alexa rank chart, elipso.hr alexa rank daily changes

elipso.hr alexa rank chart, elipso.hr alexa rank daily changes

elipso.hr
Actual rank:
84 461

RANK HISTORY

Date Rank Diff
2017/05/27 84 461 +478
2017/05/26 83 983 +706
2017/05/25 83 277 +125
2017/05/24 83 152 +239
2017/05/23 82 913 +704
2017/05/22 82 209 -160
2017/05/21 82 369 +253
2017/05/20 82 116 -843
2017/05/19 82 959 -313
2017/05/18 83 272 +510
2017/05/17 82 762 +268
2017/05/16 82 494 +1 540
2017/05/15 80 954 -316
2017/05/14 81 270 -373
2017/05/13 81 643 +677
2017/05/12 80 966 +233
2017/05/11 80 733 -1 132
2017/05/10 81 865 -782
2017/05/09 82 647 -447
2017/05/08 83 094 +202
2017/05/07 82 892 +380
2017/05/06 82 512 +291
2017/05/05 82 221 -1 139
2017/05/04 83 360 -903
2017/05/03 84 263 -655
2017/05/02 84 918 -159
2017/05/01 85 077 -1 145
2017/04/30 86 222 -558
2017/04/29 86 780 +445
2017/04/28 86 335 +105
2017/04/27 86 230 +259
2017/04/26 85 971 -739
2017/04/25 86 710 -926
2017/04/24 87 636 -200
2017/04/23 87 836 -594
2017/04/22 88 430 +38
2017/04/21 88 392 +712
2017/04/20 87 680 +1 133
2017/04/19 86 547 -125
2017/04/18 86 672 -924
2017/04/17 87 596 +148
2017/04/16 87 448 -591
2017/04/15 88 039 -1 131
2017/04/14 89 170 +376
2017/04/13 88 794 -1 862
2017/04/12 90 656 +393
2017/04/11 90 263 -963
2017/04/10 91 226 -779
2017/04/09 92 005 +305
2017/04/08 91 700 -1 179
2017/04/07 92 879 +465
2017/04/06 92 414 +1 006
2017/04/05 91 408 +279
2017/04/04 91 129 +316
2017/04/03 90 813 +1 172
2017/04/02 89 641 -220
2017/04/01 89 861 +213
2017/03/31 89 648 +567
2017/03/30 89 081 +907
2017/03/29 88 174 -611
2017/03/28 88 785

WIDGET FOR YOUR SITE

DOMAINS WITH THE NEAREST RANK

Domain Rank
stackstorage.com 84 456
spaceforupgrades.win 84 457
d3go.com 84 458
tehconnection.eu 84 459
jackpotjoy.com 84 460
elipso.hr 84 461
ricksoft.jp 84 462
mymovie-dl.com 84 463
esudan.gov.sd 84 464
sendblaster.com 84 465
bacweb.tn 84 466

DOMAINS WITH THE NEAREST RANK BY TLD .hr

Domain Rank
vipnet.hr 75 417
hcl.hr 78 493
tele2.hr 79 338
elipso.hr 84 461
jeftinije.hr 86 075
carnet.hr 87 001
priznajem.hr 87 254
mojkvart.hr 88 236
unist.hr 88 738